Location: Klein M�hlingen
(51.9472°N, 11.7453°E)
Time: 07:31:08
(UTC+00:00)

Cosmos 1500 Rocket - Pass Details

Date: 09 April 2020
Orbit: 604 x 630 km, 82.5° (Epoch: 02 June)

Event Time Altitude Azimuth Distance (km) Brightness Sun altitude
Rises 20:55:53 0° 353° (N) 2,878 7.9 -23.1°
Reaches altitude 10° 20:58:12 10° 0° (N) 1,972 6.8 -23.3°
Enters shadow 21:01:58 42° 57° (ENE) 875 4.2 -23.7°
